Weather in Tyniste nad Orlici

Czech Republic     50°08′49″N   16°04′13″E
temp.,
°C
wind,
m/s
gust,
m/s
humid.,
%
clouds,
%
prec.,
mm/h
press.,
hPa
HPBL,
m
18 may, tue
tue1823:00+8w3895100 0.6 1007186
02:00+7w41097100 0.6 1009330
05:00+6wsw279887 0.0 1009214
08:00+8w31095100 0.0 1011460
11:00+10w71090100 0.3 1012770
14:00+14wnw796780 0.5 10111613
17:00+15w686698 0.1 10111630
20:00+11w49835 0.1 1012247
19 may, wed
wed1923:00+7w119112 0.0 101322
02:00+5wnw23955 0.0 101462
05:00+4wsw2298100 0.0 101545
08:00+8w238965 0.0 1015355
11:00+11w4575100 0.2 1015844
14:00+13wnw5568100 0.6 10131451
17:00+13wnw346887 0.9 10131089
20:00+10n1283100 2.2 101444
20 may, thu
thu2023:00+7n1188100 0.0 101610
02:00+5ssw1190100 0.0 101710
05:00+4sw1193100 0.0 101711
08:00+8wsw1286100 0.0 1018249
11:00+13wnw3471100 0.4 10181002
14:00+14nw5669100 3.4 10181263
17:00+14wnw576817 1.8 10181329
20:00+10wnw37864 2.6 1020142
21 may, fri
fri2123:00+6nw11894 0.0 102215
02:00+5s11925 0.0 102210
05:00+4se2295100 0.0 102116
08:00+9sse2286100 0.0 1020274
11:00+14s356649 0.0 1018871
14:00+17s575178 0.0 10151955
17:00+17s6962100 0.0 10121496
20:00+13s1280100 0.1 101227
22 may, sat
sat2223:00+10ese4108465 0.0 1010199
02:00+10se61282100 0.0 1008311
05:00+10se61575100 0.0 1006555
08:00+12ssw4677100 0.0 1008709
11:00+13s3473100 0.1 1007943
14:00+12wsw4989100 0.6 1008544
17:00+12wsw61181100 0.8 1009831
20:00+10sw51183100 1.0 1010437